Tracking 27112 objects as of 26-Mar-2023
HD Live streaming from Space Station
objects crossing your sky now

STARLINK-2581

Track STARLINK-2581 now!
10-day predictions
STARLINK-2581 is classified as:


NORAD ID: 48412
Int'l Code: 2021-038BM
Perigee: 553.5 km
Apogee: 555.4 km
Inclination: 53.1 °
Period: 95.6 minutes
Semi major axis: 6925 km
RCS: Unknown
Launch date: May 4, 2021
Source: United States (US)
Launch site: AIR FORCE EASTERN TEST RANGE (AFETR)
Your satellite tracking list
Your tracking list is empty




NASA's NSSDC Master Catalog

Two Line Element Set (TLE):
1 48412U 21038BM  23085.18505477 -.00000440  00000-0 -10647-4 0  9990
2 48412  53.0531  98.1329 0001409  77.5802 282.5344 15.06371882105873
Source of the keplerian elements: AFSPC